Weather History for Ramona, CA

Change the Weather History Date:

Thursday, December 27, 2012

  Actual Average Record
Temperature  
Mean Temperature 46 °F 50 °F  
Max Temperature 56 °F 65 °F 82 °F (1980)
Min Temperature 36 °F 34 °F 24 °F (2003)
Degree Days  
Heating Degree Days 19 16  
Month to date heating degree days 388 419  
Since 1 July heating degree days 708 830  
Cooling Degree Days 0 0  
Month to date cooling degree days 0 0  
Year to date cooling degree days 1035 850  
Moisture  
Dew Point 39 °F    
Average Humidity 72    
Maximum Humidity 100    
Minimum Humidity 43    
Precipitation  
Precipitation 0.00 in 0.11 in 1.16 in (1984)
Month to date precipitation 1.83 1.70  
Year to date precipitation 10.27 15.51  
Since 1 July precipitation 3.35 4.18  
Snow  
Snow 0.00 in - - ()
Month to date snowfall 0.0  
Year to date snowfall 0.0  
Since 1 July snowfall 0.0  
Snow Depth 0.00 in    
Sea Level Pressure  
Sea Level Pressure 29.99 in    
Wind  
Wind Speed 2 mph (West)    
Max Wind Speed 14 mph    
Max Gust Speed 17 mph    
Visibility 8 miles    
Events Fog    
T = Trace of Precipitation, MM = Missing Value Source: NWS Daily Summary

Daily Weather History Graph

Daily Weather History Graph

Search for Another Location

Airport:

Trip Planner

Search our weather history database for the weather conditions in past years. The results will help you decide how hot, cold, wet, or windy it might be!

Date:

Astronomy

Dec. 27, 2012 Rise Set
Actual Time 6:49 AM PST 4:48 PM PST
Civil Twilight 6:22 AM PST 5:16 PM PST
Nautical Twilight 5:51 AM PST 5:47 PM PST
Astronomical Twilight 5:21 AM PST 6:17 PM PST
Moon 4:34 PM PST (12/27) 6:05 AM PST (12/27)
Length of Visible Light 10h 53m
Length of Day
9h 59m
Full, 100% of the Moon is Illuminated
Dec 27
Full
Dec 28
Full
Jan 4
Last Quarter
Jan 11
New
Jan 18
First Quarter

Hourly Weather History & Observations

Time (PST) Temp. Windchill Dew Point Humidity Pressure Visibility Wind Dir Wind Speed Gust Speed Precip Events Conditions
12:01 AM 44.6 °F - 42.8 °F 93% 29.97 in 9.0 mi Calm Calm - N/A   Overcast
12:09 AM 44.6 °F - 42.8 °F 93% 29.97 in 9.0 mi Calm Calm - N/A   Overcast
12:22 AM 44.6 °F 42.2 °F 42.8 °F 93% 29.97 in 7.0 mi SSE 4.6 mph - N/A   Overcast
12:50 AM 44.6 °F - 44.6 °F 100% 29.97 in 10.0 mi Calm Calm - N/A   Overcast
12:53 AM 45.0 °F - 44.1 °F 97% 29.96 in 9.0 mi Calm Calm - N/A   Overcast
1:35 AM 44.6 °F - 42.8 °F 93% 29.97 in 10.0 mi Calm Calm - N/A   Overcast
1:53 AM 45.0 °F - 43.0 °F 93% 29.97 in 8.0 mi Calm Calm - N/A   Overcast
2:27 AM 46.4 °F 42.9 °F 44.6 °F 93% 29.97 in 10.0 mi West 6.9 mph - N/A   Overcast
2:53 AM 46.9 °F - 45.0 °F 93% 29.96 in 10.0 mi West 6.9 mph - N/A   Overcast
3:53 AM 46.0 °F - 44.1 °F 93% 29.94 in 10.0 mi Calm Calm - N/A   Overcast
4:50 AM 44.6 °F - 42.8 °F 93% 29.94 in 10.0 mi Calm Calm - N/A   Mostly Cloudy
4:53 AM 44.1 °F - 42.1 °F 93% 29.94 in 10.0 mi Calm Calm - N/A   Scattered Clouds
5:14 AM 42.8 °F - 42.8 °F 100% 29.95 in 10.0 mi Calm Calm - N/A   Mostly Cloudy
5:46 AM 39.2 °F - 39.2 °F 100% 29.95 in 7.0 mi Calm Calm - N/A   Scattered Clouds
5:53 AM 39.9 °F - 39.0 °F 97% 29.96 in 1.2 mi Calm Calm - N/A   Scattered Clouds
5:55 AM 39.2 °F - 39.2 °F 100% 29.96 in 0.8 mi Calm Calm - N/A   Mostly Cloudy
6:01 AM 39.2 °F - 39.2 °F 100% 29.96 in 0.2 mi Calm Calm - N/A Fog Fog
6:29 AM 37.4 °F - 37.4 °F 100% 29.97 in 0.2 mi Calm Calm - N/A Fog Fog
6:53 AM 39.0 °F - 37.9 °F 96% 29.98 in 0.2 mi Calm Calm - N/A Fog Fog
7:53 AM 42.1 °F - 41.0 °F 96% 30.00 in 3.0 mi Calm Calm - N/A   Scattered Clouds
8:53 AM 46.9 °F - 42.1 °F 83% 30.00 in 3.0 mi Calm Calm - N/A   Scattered Clouds
9:03 AM 48.2 °F - 42.8 °F 82% 30.01 in 10.0 mi Calm Calm - N/A   Scattered Clouds
9:53 AM 50.0 °F - 39.0 °F 66% 30.01 in 10.0 mi Calm Calm - N/A   Scattered Clouds
10:53 AM 53.1 °F - 37.0 °F 55% 30.00 in 10.0 mi Variable 4.6 mph - N/A   Scattered Clouds
11:53 AM 54.0 °F - 36.0 °F 51% 29.98 in 10.0 mi Calm Calm - N/A   Scattered Clouds
12:53 PM 55.0 °F - 34.0 °F 45% 29.96 in 10.0 mi West 8.1 mph - N/A   Scattered Clouds
1:53 PM 54.0 °F - 36.0 °F 51% 29.96 in 10.0 mi West 11.5 mph - N/A   Clear
2:53 PM 53.1 °F - 37.0 °F 55% 29.96 in 10.0 mi West 8.1 mph - N/A   Scattered Clouds
3:53 PM 51.1 °F - 37.9 °F 61% 29.98 in 10.0 mi West 9.2 mph - N/A   Clear
4:53 PM 45.0 °F 43.5 °F 37.9 °F 76% 30.00 in 10.0 mi West 3.5 mph - N/A   Clear
5:53 PM 45.0 °F - 37.9 °F 76% 30.03 in 10.0 mi Calm Calm - N/A   Clear
6:53 PM 39.9 °F - 37.0 °F 89% 30.05 in 10.0 mi Calm Calm - N/A   Clear
7:53 PM 37.0 °F - 35.1 °F 93% 30.06 in 10.0 mi Calm Calm - N/A   Clear
8:53 PM 37.0 °F - 35.1 °F 93% 30.07 in 5.0 mi Calm Calm - N/A   Clear
9:53 PM 36.0 °F 33.3 °F 33.1 °F 89% 30.08 in 7.0 mi NNE 3.5 mph - N/A   Clear
10:53 PM 35.1 °F - 33.1 °F 92% 30.09 in 6.0 mi Calm Calm - N/A   Clear
11:40 PM 33.8 °F - 30.2 °F 87% 30.10 in 2.0 mi Calm Calm - N/A   Clear
11:53 PM 33.1 °F - 32.0 °F 96% 30.10 in 6.0 mi Calm Calm - N/A   Clear